Location: Kershaw
(34.5481°N, 80.5823°W)
Time: 23:53:08
(UTC+00:00)

Transit 4A - Pass Details

Date: 12 October 2022
Orbit: 871 x 972 km, 66.8° (Epoch: 09 December)

Event Time Altitude Azimuth Distance (km) Brightness Sun altitude
Rises 08:34:58 0° 353° (N) 3,479 11.0 -35.6°
Reaches altitude 10° 08:39:52 10° 29° (NNE) 2,525 10.6 -34.6°
Maximum altitude 08:41:20 11° 44° (NE) 2,456 10.7 -34.3°
Drops below altitude 10° 08:42:49 10° 59° (ENE) 2,520 10.9 -34.0°
Sets 08:47:39 0° 95° (E) 3,456 11.8 -33.1°
